Content
SEND FEEDBACK

Daily
Averages
Monthly
Summary
United States of America

AGAT, GUAM


Home > North America > United States > Guam
Elevation: 364 feet     Latitude: 13 33N     Longitude: 144 50E

WEATHER
 
SELECT A DAY
Number of Records: 214,904;   Date Range: 1/1/95 - 11/25/14
 
SHARE

PRINT THIS DATA

[ ← Previous Day ]
WEATHER ALMANAC - MARCH 29, 2013
[ Next Day → ]
[ °C ]   °F
Weather ElementAverageHighLow
Temperature83.2 °F88 °F (3:54 pm)78.8 °F (5:03 am)
Dewpoint72.3 °F73.9 °F (4:54 am)68 °F (9:47 pm)
Humidity69.8 %83 % (5:03 am)55 % (3:54 pm)
Barometer29.89 in29.95 in (9:34 pm)29.84 in (3:54 am)
Wind Speed13.1 mph19.6 mph (9:34 pm)
Wind Gust25.3 mph (11:54 am)
Weather ElementAverage
Visibility9.8 mi
Wind DirectionENE (77.3 °)

Weather ElementTotal
Precipitation0.06 in
Cooling Degree Days18.4 (Base 65)
Growing Degree Days33.4 (Base 50)
Averaged from 30 records on March 29, 2013
WEATHER CONDITIONS BREAKOUT
WIND DIRECTION BREAKOUT
WEATHER BY HOUR - MARCH 29, 2013
[ °C ]   °F
Local TimeTemperatureDewpointHumidityBarometerVisibilityWind DirectionWind SpeedGust SpeedPrecipitationEventsConditions
1:21 AM82.4 °F71.6 °F70 %29.90 in10.0 miEast (80°)11.5 mphMostly Cloudy
1:38 AM82.4 °F73.4 °F74 %29.90 in10.0 miENE (70°)13.8 mphMostly Cloudy
1:54 AM82.0 °F72.0 °F71 %29.86 in10.0 miEast (80°)10.4 mphMostly Cloudy
2:54 AM81.0 °F72.0 °F74 %29.85 in10.0 miEast (80°)9.2 mphScattered Clouds
3:54 AM81.0 °F73.0 °F77 %29.84 in10.0 miEast (80°)8.1 mphPartly Cloudy
4:41 AM80.6 °F73.4 °F79 %29.87 in6.0 miEast (80°)5.8 mph0.02 inRainLight Rain
4:54 AM80.1 °F73.9 °F81 %29.85 in10.0 miEast (80°)17.3 mph23.0 mph0.02 inMostly Cloudy
5:03 AM78.8 °F73.4 °F83 %29.88 in10.0 miEast (80°)16.1 mph23.0 mphScattered Clouds
5:54 AM80.1 °F72.0 °F76 %29.86 in10.0 miENE (70°)12.7 mphScattered Clouds
6:54 AM80.1 °F72.0 °F76 %29.88 in10.0 miENE (60°)9.2 mphMostly Cloudy
7:54 AM82.9 °F73.0 °F72 %29.90 in10.0 miEast (80°)11.5 mph0.01 inScattered Clouds
8:54 AM84.0 °F73.0 °F69 %29.92 in10.0 miEast (90°)15.0 mphMostly Cloudy
9:54 AM84.9 °F72.0 °F65 %29.92 in10.0 miEast (80°)13.8 mphScattered Clouds
10:54 AM87.1 °F72.0 °F61 %29.91 in10.0 miENE (60°)18.4 mph24.2 mphMostly Cloudy
11:54 AM86.0 °F73.0 °F65 %29.89 in10.0 miEast (80°)15.0 mph25.3 mph0.00 inOvercast
12:28 PM87.8 °F71.6 °F58 %29.90 in10.0 miEast (80°)17.3 mphPartly Cloudy
12:54 PM87.1 °F73.9 °F65 %29.87 in10.0 miEast (80°)18.4 mph25.3 mphMostly Cloudy
1:54 PM87.1 °F72.0 °F61 %29.86 in10.0 miEast (80°)16.1 mph25.3 mphMostly Cloudy
2:54 PM87.1 °F72.0 °F61 %29.84 in10.0 miEast (90°)12.7 mph21.9 mphOvercast
3:54 PM88.0 °F70.0 °F55 %29.84 in10.0 miEast (80°)15.0 mphPartly Cloudy
4:54 PM86.0 °F71.1 °F61 %29.85 in10.0 miENE (70°)16.1 mph23.0 mphMostly Cloudy
5:54 PM84.9 °F72.0 °F65 %29.86 in10.0 miENE (70°)11.5 mph19.6 mphScattered Clouds
6:54 PM82.9 °F73.0 °F72 %29.88 in10.0 miEast (80°)10.4 mphScattered Clouds
7:54 PM82.9 °F73.0 °F72 %29.90 in10.0 miENE (70°)9.2 mphScattered Clouds
8:54 PM82.9 °F73.0 °F72 %29.92 in10.0 miEast (80°)11.5 mphPartly Cloudy
9:34 PM82.4 °F73.4 °F74 %29.95 in9.0 miENE (70°)19.6 mph24.2 mph0.00 inRainLight Rain
9:47 PM80.6 °F68.0 °F65 %29.95 in10.0 miEast (80°)15.0 mph0.00 inOvercast
9:54 PM80.1 °F70.0 °F71 %29.92 in10.0 miEast (80°)10.4 mph0.01 inOvercast
10:54 PM82.0 °F73.0 °F74 %29.93 in10.0 miEast (80°)12.7 mph21.9 mph0.00 inRainLight Rain
11:54 PM82.0 °F73.9 °F76 %29.92 in10.0 miEast (80°)8.1 mph0.00 inScattered Clouds
Hourly data recorded from PGUM, located miles away from Agat, Guam







STORIES FROM OUR PARTNERS